DELTA 1 DEB, 10630

Orbit data source: Space-Track

DELTA 1 DEB, 10630 is space debris in LEO originally from a launch on Thu, 14 Jul 1977 UTC launched from the Air Force Eastern Test Range (AFETR). Debris objects in space refer to the collection of defunct objects orbiting the Earth. Examples of debris include non-operational satellites, rocket bodies, and fragments generated from explosions, collisions, or faulty payload assembly.

Loading next visibility...
Identifier
10630, 1977-065EZ
Orbit
LEO
Country
Flag of USUS
Related business
Manufacturer
Unknown
Mission
Spacecraft
Bus & Motor
Unknown
Mass
Unknown
Launch date (UTC)
1977-07-14 (49 years ago)
Launch vehicle
Unknown
Launch site
Air Force Eastern Test Range (AFETR)
Object type
Payload
Rocket body
Debris
Shape & HBR
Unknown shape, 0.1 m
Radar Cross Section
Medium (>0.1 m² and <1 m²)

Expand to show TLE details & history
Last TLE update: 2 days ago

TLE from 2 days ago
0 DELTA 1 DEB
1 10630U 77065EZ  26261.86120111  .00000226  00000-0  18931-3 0  9997
2 10630  29.2343 101.0635 0778766 314.3093  39.6089 12.81167264519485
Epoch: 2026-09-18T20:40Z
TLE epoch observation values (Epoch: 2026-09-18T20:40:07.775Z)
Latitude
-0.00004°
Longitude
153.25303°
Altitude
893.363 km
Speed
7.616 km/s
True Right ascension
06h 44m 15s
True Declination
0° 00' 00"
Sunlit
Object was in daylight at epoch
Visualization orbit readout
Latitude
Unknown
Longitude
Unknown
Altitude
Unknown
Speed
Unknown
Apparent Right ascension
Unknown
Apparent Declination
Unknown
Sunlit
N/A
Visualization observer readout
Local Sidereal Time
04:43:04
Azimuth
Unknown
Elevation
Unknown
Doppler factor
Unknown
Orbital elements
Apogee altitude
1,941.587 km
Perigee altitude
739.386 km
Semi-major axis
7,718.623 km
Eccentricity
0.07788
Inclination
29.2343°
RAAN
101.0635°
Arg. of periapsis
314.3093°
True anomaly
45.74611°
Mean anomaly
39.6089°
Eccentric anomaly
42.63089°
Mean motion
3.20061 °/min
Orbital period
112.48 mins
BSTAR
0.00018931
Loading maneuver chart data...
Computing Atmospheric mass density...

Documentation

Showing up to 5 results
|